TimeMDT,TemperatureF,Dew PointF,Humidity,Sea Level PressureIn,VisibilityMPH,Wind Direction,Wind SpeedMPH,Gust SpeedMPH,PrecipitationIn,Events,Conditions,WindDirDegrees,DateUTC
12:53 AM,77.0,48.0,36,29.99,10.0,ESE,8.1,-,N/A,,Clear,110,2014-08-10 06:53:00
1:53 AM,75.9,48.0,37,29.99,10.0,ESE,6.9,-,N/A,,Clear,120,2014-08-10 07:53:00
2:53 AM,72.0,51.1,48,29.97,10.0,SE,9.2,-,N/A,,Clear,130,2014-08-10 08:53:00
3:53 AM,71.1,50.0,47,29.98,10.0,ESE,10.4,-,N/A,,Clear,120,2014-08-10 09:53:00
4:53 AM,70.0,50.0,49,29.99,10.0,East,4.6,-,N/A,,Clear,100,2014-08-10 10:53:00
5:53 AM,68.0,51.1,55,30.00,10.0,Calm,Calm,-,N/A,,Clear,0,2014-08-10 11:53:00
6:53 AM,68.0,50.0,52,30.02,10.0,ESE,4.6,-,N/A,,Clear,110,2014-08-10 12:53:00
7:53 AM,69.8,50.0,49,30.13,10.0,ENE,3.5,-,N/A,,Clear,70,2014-08-10 13:53:00
8:53 AM,75.0,50.0,41,30.04,10.0,SE,5.8,-,N/A,,Clear,130,2014-08-10 14:53:00
9:53 AM,78.1,53.1,42,30.05,10.0,North,4.6,-,N/A,,Clear,360,2014-08-10 15:53:00
10:53 AM,82.9,51.1,33,30.04,10.0,Variable,3.5,-,N/A,,Clear,0,2014-08-10 16:53:00
11:53 AM,86.0,48.9,28,30.04,10.0,Calm,Calm,-,N/A,,Clear,0,2014-08-10 17:53:00
12:53 PM,89.1,46.9,23,30.03,10.0,Calm,Calm,-,N/A,,Clear,0,2014-08-10 18:53:00
1:53 PM,91.4,46.4,21,30.11,10.0,Variable,3.5,-,N/A,,Clear,0,2014-08-10 19:53:00
2:53 PM,95.0,46.0,19,29.98,10.0,ENE,4.6,-,N/A,,Clear,60,2014-08-10 20:53:00
3:53 PM,96.1,46.0,18,29.95,10.0,NNW,10.4,-,N/A,,Clear,330,2014-08-10 21:53:00
4:53 PM,97.0,44.1,16,29.92,10.0,Variable,5.8,-,N/A,,Clear,0,2014-08-10 22:53:00
5:53 PM,96.8,44.6,17,30.02,10.0,Variable,5.8,-,N/A,,Clear,0,2014-08-10 23:53:00
6:53 PM,97.0,42.1,15,29.90,10.0,North,5.8,-,N/A,,Clear,350,2014-08-11 00:53:00
7:53 PM,93.0,42.1,17,29.90,10.0,NW,8.1,-,N/A,,Clear,320,2014-08-11 01:53:00
8:53 PM,90.0,45.0,21,29.91,10.0,NNW,5.8,-,N/A,,Clear,340,2014-08-11 02:53:00
10:53 PM,84.0,50.0,31,29.94,10.0,Calm,Calm,-,N/A,,Clear,0,2014-08-11 04:53:00
11:53 PM,86.0,42.1,21,29.93,10.0,ESE,8.1,-,N/A,,Clear,120,2014-08-11 05:53:00